| time (UTC) | temp F | wind direction | speed knots | gust knots | rain 1hr in | rain 24hr in | rain mn in | humidity % | barometer mb |
| 20260506150024 | 47 | 178 | 3.5 | 9.6 | 0.00 | 0.04 | 0.00 | 58 | 1017.5 |
| 20260506144523 | 46 | 249 | 4.3 | 8.7 | 0.00 | 0.04 | 0.00 | 60 | 1017.2 |
| 20260506143015 | 45 | 307 | 5.2 | 10.4 | 0.00 | 0.04 | 0.00 | 61 | 1017.3 |
| 20260506141516 | 44 | 272 | 1.7 | 10.4 | 0.00 | 0.04 | 0.00 | 63 | 1017.6 |
| 20260506140038 | 44 | 352 | 4.3 | 8.7 | 0.00 | 0.04 | 0.00 | 64 | 1017.4 |
| 20260506134508 | 43 | 277 | 3.5 | 8.7 | 0.00 | 0.04 | 0.00 | 66 | 1017.3 |
| 20260506133011 | 41 | 254 | 3.5 | 9.6 | 0.00 | 0.04 | 0.00 | 70 | 1017.5 |
| 20260506131519 | 42 | 288 | 2.6 | 6.1 | 0.00 | 0.04 | 0.00 | 69 | 1017.3 |
| 20260506130021 | 41 | 251 | 4.3 | 7.8 | 0.00 | 0.04 | 0.00 | 70 | 1017.6 |
| 20260506124522 | 38 | 337 | 0.0 | 1.7 | 0.00 | 0.04 | 0.00 | 80 | 1017.6 |
| 20260506123010 | 36 | 190 | 0.0 | 5.2 | 0.00 | 0.04 | 0.00 | 84 | 1016.6 |
| 20260506121514 | 35 | 181 | 2.6 | 5.2 | 0.00 | 0.04 | 0.00 | 84 | 1016.3 |
| 20260506120024 | 35 | 163 | 2.6 | 6.1 | 0.00 | 0.04 | 0.00 | 82 | 1016.4 |
| 20260506114522 | 36 | 145 | 0.9 | 6.1 | 0.00 | 0.04 | 0.00 | 81 | 1016.5 |
| 20260506113033 | 37 | 155 | 0.0 | 5.2 | 0.00 | 0.04 | 0.00 | 80 | 1016.6 |
| 20260506111509 | 37 | 256 | 0.0 | 2.6 | 0.00 | 0.04 | 0.00 | 81 | 1016.7 |
| 20260506110015 | 37 | 169 | 0.9 | 5.2 | 0.00 | 0.04 | 0.00 | 80 | 1016.6 |
| 20260506104524 | 37 | 188 | 0.9 | 3.5 | 0.00 | 0.04 | 0.00 | 81 | 1016.5 |
| 20260506103025 | 37 | 208 | 0.0 | 2.6 | 0.00 | 0.04 | 0.00 | 81 | 1016.3 |
| 20260506101529 | 38 | 217 | 0.0 | 3.5 | 0.00 | 0.04 | 0.00 | 1016.4 | |
| 20260506100018 | 38 | 192 | 0.0 | 2.6 | 0.00 | 0.04 | 0.00 | 80 | 1016.3 |
| 20260506094518 | 39 | 34 | 1.7 | 4.3 | 0.00 | 0.04 | 0.00 | 80 | 1016.3 |
| 20260506093032 | 39 | 146 | 0.9 | 4.3 | 0.00 | 0.04 | 0.00 | 80 | 1016.2 |
| 20260506091526 | 40 | 142 | 0.9 | 2.6 | 0.00 | 0.04 | 0.00 | 77 | 1016.2 |
| 20260506090037 | 41 | 232 | 0.0 | 3.5 | 0.00 | 0.04 | 0.00 | 72 | 1016.1 |
| 20260506084517 | 42 | 192 | 2.6 | 6.1 | 0.00 | 0.04 | 0.00 | 68 | 1016.2 |
| 20260506083029 | 41 | 266 | 0.9 | 1.7 | 0.00 | 0.04 | 0.00 | 70 | 1016.2 |
| 20260506081525 | 41 | 288 | 0.0 | 1.7 | 0.00 | 0.04 | 0.00 | 1016.3 | |
| 20260506073020 | 43 | 315 | 0.9 | 3.5 | 0.00 | 0.04 | 0.00 | 75 | 1016.6 |
| 20260506071504 | 43 | 71 | 0.0 | 1.7 | 0.00 | 0.04 | 0.00 | 78 | 1016.5 |
| 20260506061522 | 42 | 5 | 0.0 | 0.9 | 0.00 | 0.04 | 0.00 | 84 | 1016.5 |
| 20260506044509 | 44 | 337 | 0.9 | 5.2 | 0.01 | 0.04 | 0.04 | 79 | 1016.4 |
| 20260506043014 | 43 | 345 | 0.9 | 3.5 | 0.03 | 0.04 | 0.04 | 81 | 1016.0 |
| 20260506041518 | 43 | 344 | 0.9 | 3.5 | 0.03 | 0.04 | 0.04 | 84 | 1016.0 |
| 20260506040021 | 43 | 344 | 0.0 | 5.2 | 0.02 | 0.03 | 0.03 | 83 | 1015.7 |
| 20260506034523 | 43 | 337 | 2.6 | 5.2 | 0.02 | 0.03 | 0.03 | 81 | 1015.9 |
| 20260506033008 | 45 | 12 | 1.7 | 7.0 | 0.00 | 0.01 | 0.01 | 76 | 1015.5 |
| 20260506031525 | 46 | 328 | 0.9 | 7.0 | 0.00 | 0.01 | 0.01 | 70 | 1015.3 |
| 20260506030026 | 47 | 325 | 2.6 | 7.0 | 0.00 | 0.01 | 0.01 | 69 | 1014.9 |
| 20260506024528 | 48 | 340 | 3.5 | 10.4 | 0.00 | 0.01 | 0.01 | 65 | 1014.7 |
| 20260506023026 | 50 | 21 | 0.9 | 1.7 | 0.00 | 0.01 | 0.01 | 60 | 1014.2 |
| 20260506021512 | 50 | 360 | 0.0 | 1.7 | 0.00 | 0.01 | 0.01 | 61 | 1013.8 |
| 20260506020017 | 50 | 342 | 0.0 | 1.7 | 0.00 | 0.01 | 0.01 | 60 | 1013.5 |
| 20260506014518 | 51 | 360 | 0.0 | 2.6 | 0.00 | 0.01 | 0.01 | 59 | 1013.4 |
| 20260506013026 | 51 | 321 | 0.9 | 4.3 | 0.00 | 0.01 | 0.01 | 59 | 1013.3 |
| 20260506011527 | 52 | 339 | 1.7 | 7.8 | 0.00 | 0.01 | 0.01 | 55 | 1013.3 |
| 20260506010038 | 53 | 327 | 3.5 | 8.7 | 0.00 | 0.01 | 0.01 | 53 | 1013.4 |
| 20260506004521 | 53 | 238 | 0.9 | 4.3 | 0.00 | 0.01 | 0.01 | 54 | 1013.1 |
| 20260506003023 | 54 | 319 | 0.9 | 4.3 | 0.00 | 0.01 | 0.01 | 53 | 1013.1 |
| 20260506001524 | 54 | 200 | 0.9 | 7.0 | 0.00 | 0.01 | 0.01 | 53 | 1013.0 |
| 20260506000026 | 56 | 287 | 1.7 | 7.0 | 0.00 | 0.01 | 0.01 | 49 | 1012.9 |
| 20260505234515 | 57 | 323 | 2.6 | 7.8 | 0.00 | 0.01 | 0.01 | 47 | 1013.0 |
| 20260505233022 | 58 | 340 | 2.6 | 8.7 | 0.00 | 0.01 | 0.01 | 46 | 1012.9 |
| 20260505231523 | 57 | 352 | 4.3 | 9.6 | 0.00 | 0.01 | 0.01 | 48 | 1013.0 |
| 20260505230037 | 56 | 209 | 1.7 | 3.5 | 0.00 | 0.01 | 0.01 | 54 | 1013.0 |
| 20260505224512 | 54 | 270 | 0.0 | 5.2 | 0.00 | 0.01 | 0.01 | 57 | 1013.1 |
| 20260505223018 | 52 | 315 | 1.7 | 7.8 | 0.00 | 0.01 | 0.01 | 66 | 1013.6 |
| 20260505221524 | 52 | 11 | 4.3 | 13.0 | 0.00 | 0.01 | 0.01 | 61 | 1013.8 |
| 20260505220028 | 53 | 360 | 4.3 | 10.4 | 0.00 | 0.01 | 0.01 | 57 | 1013.8 |
| 20260505214526 | 57 | 309 | 4.3 | 8.7 | 0.00 | 0.01 | 0.01 | 53 | 1013.6 |
| 20260505213024 | 58 | 14 | 4.3 | 7.8 | 0.00 | 0.01 | 0.01 | 51 | 1013.5 |
| 20260505211504 | 59 | 258 | 2.6 | 10.4 | 0.00 | 0.01 | 0.01 | 50 | 1013.6 |
| 20260505210007 | 59 | 318 | 3.5 | 9.6 | 0.00 | 0.01 | 0.01 | 51 | 1013.6 |
| 20260505204509 | 56 | 337 | 2.6 | 9.6 | 0.00 | 0.01 | 0.01 | 55 | 1013.7 |
| 20260505203025 | 56 | 333 | 1.7 | 8.7 | 0.00 | 0.01 | 0.01 | 56 | 1013.9 |
| 20260505201519 | 57 | 320 | 6.1 | 11.3 | 0.00 | 0.01 | 0.01 | 56 | 1014.0 |
| 20260505200006 | 57 | 238 | 4.3 | 11.3 | 0.01 | 0.01 | 0.01 | 57 | 1014.1 |
| 20260505194508 | 55 | 246 | 4.3 | 10.4 | 0.01 | 0.01 | 0.01 | 61 | 1013.9 |
| 20260505193012 | 53 | 238 | 2.6 | 7.0 | 0.01 | 0.01 | 0.01 | 68 | 1014.3 |
| 20260505191519 | 51 | 215 | 1.7 | 7.8 | 0.01 | 0.01 | 0.01 | 82 | 1014.5 |
| 20260505190032 | 53 | 136 | 1.7 | 9.6 | 0.00 | 0.00 | 0.00 | 70 | 1014.6 |
| 20260505184508 | 57 | 242 | 3.5 | 7.8 | 0.00 | 0.00 | 0.00 | 53 | 1014.6 |
| 20260505183009 | 58 | 302 | 3.5 | 9.6 | 0.00 | 0.00 | 0.00 | 49 | 1014.2 |
| 20260505181515 | 58 | 223 | 3.5 | 9.6 | 0.00 | 0.00 | 0.00 | 50 | 1014.4 |
| 20260505180022 | 56 | 207 | 2.6 | 8.7 | 0.00 | 0.00 | 0.00 | 52 | 1014.4 |
| 20260505174524 | 57 | 278 | 2.6 | 7.8 | 0.00 | 0.00 | 0.00 | 49 | 1014.5 |
| 20260505173009 | 54 | 221 | 1.7 | 4.3 | 0.00 | 0.00 | 0.00 | 53 | 1014.7 |
| 20260505171519 | 54 | 343 | 2.6 | 3.5 | 0.00 | 0.00 | 0.00 | 52 | 1015.1 |
| 20260505170020 | 53 | 50 | 0.0 | 4.3 | 0.00 | 0.00 | 0.00 | 53 | 1015.0 |
| 20260505164521 | 52 | 344 | 0.9 | 3.5 | 0.00 | 0.00 | 0.00 | 55 | 1015.0 |
| 20260505163010 | 51 | 332 | 0.9 | 3.5 | 0.00 | 0.00 | 0.00 | 58 | 1015.1 |
| 20260505161510 | 51 | 47 | 0.0 | 4.3 | 0.00 | 0.00 | 0.00 | 57 | 1015.4 |
| 20260505153026 | 50 | 344 | 1.7 | 5.2 | 0.00 | 0.00 | 0.00 | 56 | 1015.5 |
| 20260505151509 | 50 | 338 | 0.9 | 5.2 | 0.00 | 0.00 | 0.00 | 57 | 1015.5 |